STARLINK-35936 (66620 NORAD) Tracking and Keplerian Element Data

This shows tracking and keplerian element data for the satellite.

Feedback or suggestion? Click here.




ElementValue
Catalog66620
NameSTARLINK-35936
Epoch Orbit532
Epoch Day353.94998243
Epoch Year2025
RAAN152.7719
Inclination53.1593
Eccentricity0.0001217
Argument of Perigee60.4895
Mean Anonmoly299.6234
Mean Motion15.45204148
Decay Rate-0.00389636
L11 66620U 25271D 25353.94998243 -.00389636 00000+0 -84825-2 0 9998
L22 66620 53.1593 152.7719 0001217 60.4895 299.6234 15.45204148 5322



Live tracking and technical data element details for STARLINK-35936 (NORAD 66620). STARLINK-35936 can be tracked NOW for your location showing map with azimuth and elevation plus other details from your city location.







IsCatalogInMostPopularTable: catalog: 66620, numindb: 15
Update: records affected: 1



GetName: 66620 STARLINK-35936

Hit Count: updated at: Sat, 11 Apr 2026 21:52:43 GMT